#timestamp,LO_Frequency,Hit,StdDev 
1663326015.7,286046999.0,N
1663326035.5,286046998.7,N
1663326055.4,286046996.6,N
1663326075.2,286046997.2,N
1663326095.0,286046996.6,N
1663326095.9,286046996.6,N
1663326115.8,286046996.7,N
1663326135.6,286046997.9,N
1663326155.4,286046995.8,N
1663326175.3,286046995.8,N
1663326195.1,286046996.2,N
1663326215.9,286046995.2,N
1663326235.7,286046995.6,N
1663326255.5,286046997.9,N
1663326275.4,286046997.2,N
1663326295.2,286046995.4,N
1663326315.0,286046996.1,N
1663326315.9,286046996.1,N
1663326335.8,286046996.4,N
1663326355.6,286046995.6,N
1663326375.5,286046995.9,N
1663326395.3,286046996.1,N
1663326415.1,286046996.1,N
1663326435.9,286046996.4,N
1663326455.7,286046996.0,N
1663326475.5,286046993.3,Y
1663326495.4,286046998.4,P
1663326515.2,286046998.2,N
1663326535.1,286046998.9,N
1663326536.0,286046998.9,N
1663326555.8,286046998.7,N
1663326575.6,286046999.0,N
1663326595.5,286046999.3,N
1663326615.3,286046998.6,N
1663326635.1,286046998.1,Y
1663326655.9,286047000.0,P
1663326675.7,286047001.2,N
1663326695.6,286046998.2,N
1663326715.4,286046998.6,N
1663326735.2,286046999.0,N
1663326755.1,286046999.5,N
1663326756.0,286046999.5,N
1663326775.8,286046997.6,N
1663326795.6,286046998.8,N
1663326815.5,286046996.5,Y
1663326835.3,286046998.6,P
1663326855.2,286046998.4,P
1663326875.9,286046998.1,P
1663326895.7,286046999.0,N
1663326915.6,286046998.9,Y
1663326935.4,286046999.9,P
1663326955.2,286047000.8,N
1663326975.1,286046998.5,N
1663326976.0,286046998.5,N
1663326995.8,286047001.2,N
1663327015.7,286047001.0,N
1663327035.5,286047000.7,N
1663327055.3,286046998.5,N
1663327075.2,286047001.2,N
1663327095.0,286047000.8,N
1663327095.9,286047000.8,N
1663327115.7,286046998.3,N
1663327135.6,286046998.2,N
1663327155.4,286047001.2,N
1663327175.3,286046999.3,N
1663327195.1,286046999.4,N
1663327196.0,286046999.4,N
1663327215.8,286046999.4,N
1663327235.7,286046999.5,N
1663327255.5,286046999.3,N
1663327275.4,286046996.5,Y
1663327295.2,286046997.3,P
1663327315.0,286046997.2,N
1663327315.9,286046997.2,N
1663327335.8,286046999.2,N
1663327355.6,286046996.5,Y
1663327375.4,286047000.3,P
1663327395.3,286046999.9,N
1663327415.1,286046999.7,N
1663327435.9,286046999.7,N
1663327455.7,286047000.1,N
1663327475.5,286047002.2,Y
1663327495.4,286047001.6,P
1663327515.2,286047002.7,N
1663327535.0,286047000.1,N
1663327536.0,286047000.1,N
1663327555.8,286047002.8,N
1663327575.6,286046999.8,N
1663327595.5,286047001.9,N
1663327615.3,286047002.2,N
1663327635.1,286047002.5,N
1663327655.9,286047003.7,Y
1663327675.7,286047018.6,P
1663327695.6,286047020.7,N
1663327715.4,286047021.0,N
1663327735.2,286047019.2,N
1663327755.1,286047016.4,N
1663327756.0,286047016.4,N
1663327775.8,286047015.4,N
1663327795.6,286047013.7,N
1663327815.5,286047011.7,N
1663327835.3,286047009.6,N
1663327855.2,286047010.7,N
1663327875.9,286047010.5,N
1663327895.7,286047008.7,N
1663327915.6,286047006.3,N
1663327935.4,286047006.7,N
1663327955.2,286047004.5,N
1663327975.1,286047005.3,N
1663327976.0,286047005.3,N
1663327995.8,286047005.9,N
1663328015.7,286047003.3,N
1663328035.5,286047004.1,N
1663328055.3,286047004.4,N
1663328075.2,286047001.5,N
1663328095.0,286047002.2,N
1663328095.9,286047002.2,N
1663328115.7,286047002.8,N
1663328135.6,286046999.7,N
1663328155.4,286046999.9,N
1663328175.3,286047000.3,N
1663328195.1,286047000.5,N
1663328196.0,286047000.5,N
1663328215.8,286047000.7,N
1663328235.7,286047000.4,N
1663328255.5,286047001.0,N
1663328275.3,286047000.6,N
1663328295.2,286046998.2,N
1663328315.0,286046998.4,N
1663328315.9,286046998.4,N
1663328335.8,286047000.7,N
1663328355.6,286046998.6,N
1663328375.4,286047000.8,N
1663328395.3,286046998.4,N
1663328415.1,286046998.4,N
1663328435.9,286046998.9,N
1663328455.7,286047001.2,N
1663328475.5,286047000.9,N
1663328495.4,286047000.7,N
1663328515.2,286046998.1,N
1663328535.0,286046998.6,N
1663328535.9,286046998.6,N
1663328555.8,286046998.6,N
1663328575.6,286047000.7,N
1663328595.5,286047001.1,N
1663328615.3,286046998.6,N
1663328635.1,286046998.6,N
1663328655.9,286046998.6,N
1663328675.7,286046998.1,N
1663328695.5,286046998.7,N
1663328715.4,286046998.6,N
1663328735.2,286047000.4,N
1663328755.1,286047000.1,N
1663328756.0,286047000.1,N
1663328775.8,286047002.8,N
1663328795.6,286047002.2,N
1663328815.5,286047002.6,N
1663328835.3,286047002.2,N
1663328855.1,286047001.5,N
1663328875.9,286047002.5,N
1663328895.7,286047002.6,N
1663328915.6,286047002.1,N
1663328935.4,286047002.3,N
1663328955.2,286047002.1,N
1663328975.1,286047001.9,N
1663328976.0,286047001.9,N
1663328995.8,286047002.0,N
1663329015.6,286047002.1,N
1663329035.5,286047004.3,N
1663329055.3,286047011.9,Y
1663329075.2,286047002.1,P
1663329095.9,286047001.5,N
1663329115.7,286047001.6,N
1663329135.6,286047001.6,Y
1663329155.4,286047000.3,P
1663329175.3,286047000.8,N
1663329195.1,286047000.8,N
1663329196.0,286047000.8,N
1663329215.8,286047001.1,N
1663329235.7,286047000.8,N
1663329255.5,286046998.1,Y
1663329275.3,286046998.7,P
1663329295.2,286046998.4,N
1663329315.0,286046998.5,N
1663329315.9,286046998.5,N
1663329335.8,286046998.8,N
1663329355.6,286046998.5,N
1663329375.4,286047000.8,N
1663329395.3,286047000.3,N
1663329415.1,286047000.2,N
1663329435.9,286046999.9,N
1663329455.7,286047000.2,N
1663329475.5,286047000.4,N
1663329495.4,286047000.1,N
1663329515.2,286047000.7,N
1663329535.0,286047000.4,N
1663329535.9,286047000.4,N
1663329555.8,286047000.7,N
1663329575.6,286047000.6,N
1663329595.5,286046999.8,N
